Torna al catalogo

DELTA 1 DEB

AttivoUNKNOWN
NORAD 12581·DEBRIS·🇺🇸 United States

Lanciato Jul 29, 1976 da Vandenberg Space Force Base

Loading…

Prossimi Passaggi (prossime 24 ore)

TLE

AggiornatoSource: Space-Track

Epoca: Sep 14, 2026, 14:29 UTC

1 12581U 76077DZ  26257.60377666 -.00000026  00000-0  18545-3 0  9992
2 12581 102.4358 124.0332 0382294  11.7152  14.8813 11.70251008 75857

Traccia DELTA 1 DEB in tempo reale con AllMySat

Download on the App Store